Location: Altavilla Irpina
(41.0000°N, 14.7833°E)
Time: 07:06:22
(UTC+00:00)

USA 229 DEB - Pass Details

Date: 19 May 2025
Orbit: 872 x 1339 km, 63.4° (Epoch: 14 June)

Event Time Altitude Azimuth Distance (km) Brightness Sun altitude
Exits shadow 23:20:44 35° 271° (W) 1,491 4.3 -28.8°
Maximum altitude 23:22:40 45° 314° (NW) 1,303 4.3 -28.7°
Drops below altitude 10° 23:29:03 10° 26° (NNE) 2,873 6.8 -28.6°
Sets 23:32:00 0° 33° (NNE) 3,906 7.6 -28.5°
